Погода в Заворово

Россия / Московская область     55°20′38″N   38°13′44″E
темп.,
°C
ветер,
м/с
пор.,
м/с
влажн.,
%
обл.,
%
осадки,
мм/ч
давл.,
гПа
погр.,
м
28 июля, ср
ср2800:00+18ю116691 0.0 101811
03:00+17юз22755 0.0 101712
06:00+18ю237192 0.0 101656
09:00+23ююз3461100 0.1 1016443
12:00+25ю4551100 0.0 10151012
15:00+18зюз61193100 3.9 1016553
18:00+18ююв51087100 1.2 1013393
21:00+16ююв499189 1.3 1012310
29 июля, чт
чт2900:00+16ю41090100 0.6 1010302
03:00+17ююз4996100 1.3 1008353
06:00+17зюз4998100 0.3 1007403
09:00+18зсз5893100 0.4 1007608
12:00+22зсз576627 0.1 10071043
15:00+27зсз474859 0.1 10062028
18:00+24зсз3558100 0.0 1006134
21:00+21з33698 0.0 100535
30 июля, пт
пт3000:00+19зюз4677100 0.0 100690
03:00+18зюз2278100 0.0 100516
06:00+18зсз3786100 0.2 1006199
09:00+18всв1298100 4.4 100661
12:00+19ююз2492100 2.1 1006370
15:00+22зсз237741 2.5 1005728
18:00+24зсз466611 0.3 10051058
21:00+19з338274 0.4 100538
31 июля, сб
сб3100:00+19з3776100 0.0 1006132
03:00+18з4970100 0.0 1006202
06:00+18зюз5117136 0.0 1006305
09:00+23з610575 0.0 1006782
12:00+26зюз712436 0.0 10062268
15:00+27з811341 0.0 10062446
18:00+25з6941100 0.0 10071184
21:00+19з34625 0.0 100844
1 августа, вс
вс100:00+17юз3368100 0.0 100938
03:00+16ююз3470100 0.0 100955
06:00+17ю3869100 0.0 1008164
09:00+22ю61263100 0.0 1007464
12:00+30юз9143797 0.0 10052468
15:00+22зюз4973100 0.3 1006277
18:00+24з710646 0.0 1007937
21:00+19з348299 0.0 100865